Location: Cheyres
(46.8153°N, 6.7877°E)
Time: 11:56:59
(UTC+00:00)

Gbstr 26 Del rocket - Pass Details

Date: 25 September 2021
Orbit: 492 x 1263 km, 51.8° (Epoch: 18 October)

Event Time Altitude Azimuth Distance (km) Brightness Sun altitude
Rises 21:15:51 0° 246° (WSW) 3,981 7.4 -36.5°
Reaches altitude 10° 21:18:30 10° 247° (WSW) 3,096 6.8 -36.8°
Enters shadow 21:22:47 38° 251° (WSW) 1,795 5.4 -37.3°
